EST,Max TemperatureF,Mean TemperatureF,Min TemperatureF,Max Dew PointF,MeanDew PointF,Min DewpointF,Max Humidity, Mean Humidity, Min Humidity, Max Sea Level PressureIn, Mean Sea Level PressureIn, Min Sea Level PressureIn, Max VisibilityMiles, Mean VisibilityMiles, Min VisibilityMiles, Max Wind SpeedMPH, Mean Wind SpeedMPH, Max Gust SpeedMPH,PrecipitationIn, CloudCover, Events, WindDirDegrees
2010-12-1,61,46,31,61,41,18,100,74,48,30.11,29.82,29.61,10,7,2,32,15,44,1.10,6,Rain,271
2010-12-2,39,36,32,26,21,19,75,62,48,30.24,30.19,30.12,10,10,10,17,8,24,0.00,6,,289
2010-12-3,44,38,32,26,23,18,72,62,51,30.17,30.13,30.07,10,10,10,17,7,21,0.00,7,,307
2010-12-4,35,31,26,28,24,17,92,72,52,30.13,29.96,29.85,10,6,0,12,4,15,0.08,6,Fog-Snow,47
2010-12-5,34,31,28,25,18,12,78,63,47,30.05,29.97,29.85,10,10,7,30,17,39,T,7,Snow,303
2010-12-6,31,27,23,17,10,6,55,49,42,29.99,29.95,29.90,10,10,7,30,17,46,T,7,Snow,299
2010-12-7,29,25,20,7,6,4,56,47,38,30.09,29.97,29.88,10,10,10,28,15,44,0.00,4,,302
2010-12-8,32,27,21,11,9,5,59,49,39,30.28,30.17,30.06,10,10,9,28,10,36,0.00,1,,297
2010-12-9,38,28,17,11,8,1,67,44,21,30.38,30.33,30.27,10,10,10,10,3,17,0.00,0,,244
2010-12-10,43,34,25,17,13,9,68,49,29,30.35,30.30,30.23,10,10,10,9,2,12,0.00,2,,130
2010-12-11,42,33,24,32,22,17,89,64,39,30.27,30.14,29.92,10,9,2,12,2,13,0.00,4,,113
2010-12-12,38,33,27,36,32,18,92,81,70,29.92,29.58,29.35,10,5,1,25,5,36,0.08,8,Rain-Snow,292
2010-12-13,31,24,17,16,8,1,68,57,45,29.80,29.59,29.41,10,10,10,35,21,45,0.00,6,,298
2010-12-14,25,18,10,3,0,-3,63,48,32,30.05,29.95,29.81,10,10,10,26,20,36,0.00,2,,295
2010-12-15,34,25,15,7,3,-1,54,39,24,30.07,30.03,30.00,10,10,10,22,9,29,0.00,0,,288
2010-12-16,29,26,22,27,21,7,92,69,46,29.99,29.81,29.67,10,5,0,8,1,22,0.41,8,Fog-Rain-Snow,29
2010-12-17,38,33,28,30,25,21,92,76,59,30.17,30.04,29.87,10,10,9,18,7,23,0.00,5,,324
2010-12-18,35,31,27,25,23,21,75,70,64,30.17,30.10,30.03,10,10,8,10,2,12,T,7,Snow,17
2010-12-19,36,29,22,23,18,13,81,66,51,30.09,30.05,30.02,10,10,10,23,6,29,0.00,1,,326
2010-12-20,35,28,21,18,15,10,65,56,47,30.18,30.14,30.09,10,10,10,24,9,30,0.00,2,,289
2010-12-21,41,35,29,30,24,19,70,61,52,30.16,30.07,30.00,10,10,10,14,5,16,T,8,,284
2010-12-22,45,40,34,36,30,22,82,69,56,30.09,29.96,29.88,10,10,10,29,10,38,T,7,,321
2010-12-23,37,33,29,22,17,15,61,53,44,30.24,30.19,30.10,10,10,10,29,17,40,0.00,5,,321
2010-12-24,43,34,25,18,16,12,63,46,29,30.28,30.20,30.13,10,10,10,22,8,28,0.00,2,,324
2010-12-25,34,32,29,29,27,17,100,76,51,30.12,30.02,29.94,10,3,1,9,1,13,0.31,8,Snow,245
2010-12-26,31,28,25,27,19,10,92,73,53,29.91,29.81,29.72,10,9,2,24,11,37,0.01,7,Snow,347
2010-12-27,30,27,23,11,10,8,55,49,42,30.19,29.96,29.77,10,10,10,38,18,47,0.00,2,,301
2010-12-28,41,31,21,14,11,8,59,45,30,30.23,30.17,30.10,10,10,10,30,10,36,0.00,0,,268
2010-12-29,43,35,27,24,20,13,75,58,41,30.19,30.15,30.10,10,10,10,21,6,26,0.00,0,,313
2010-12-30,45,36,26,27,25,22,85,67,49,30.29,30.23,30.19,10,10,9,9,2,12,0.00,4,,94
2010-12-31,58,44,29,33,30,26,85,62,38,30.26,30.22,30.19,10,10,10,9,2,12,0.00,2,,56